Temp
-18 -18 -16 -18 -18 -17 -18 -19 -18 -17 -18 -17 -15 -14 -13 -13 -13 -12 -12 -12 -12 -12 -11 -12 -12 -12 -12 -12 -12 -12 -12 -12 -12 -12 -12 -12 -13 -12 -13 -13 -13 -12 -12 -13
-18 -17 -17 -18 -18 -18 -18 -18 -17 -17 -18 -19 -17 -15 -14 -13 -12 -12 -12 -12 -12 -12 -12 -12 -12 -12 -11 -12 -12 -12 -12 -12 -12 -12 -13 -13 -12 -12 -12 -13 -13 -13 -13 -13
-17 -16 -19 -18 -18 -17 -17 -17 -16 -18 -18 -20 -17 -15 -14 -14 -13 -13 -12 -12 -12 -12 -12 -12 -12 -12 -11 -12 -12 -12 -12 -12 -12 -12 -13 -13 -12 -12 -13 -13 -13 -13 -13 -13
-17 -17 -18 -19 -18 -17 -18 -17 -18 -18 -18 -19 -18 -15 -17 -15 -14 -13 -13 -12 -12 -12 -12 -12 -12 -12 -11 -11 -11 -12 -12 -12 -12 -12 -12 -13 -12 -13 -13 -13 -13 -13 -13 -13
-17 -18 -18 -19 -17 -19 -17 -18 -20 -19 -20 -18 -18 -16 -15 -16 -15 -13 -13 -13 -13 -12 -12 -12 -12 -12 -12 -11 -11 -12 -12 -11 -12 -12 -12 -13 -12 -13 -13 -13 -13 -13 -13 -13
-20 -20 -20 -19 -19 -20 -18 -20 -20 -20 -21 -21 -16 -17 -15 -17 -16 -15 -14 -13 -13 -13 -13 -12 -12 -12 -12 -11 -12 -12 -12 -11 -12 -12 -12 -13 -13 -13 -13 -14 -14 -13 -13 -13
-24 -24 -25 -24 -22 -22 -20 -21 -22 -22 -21 -17 -16 -18 -15 -17 -18 -18 -16 -14 -14 -14 -13 -13 -12 -12 -12 -12 -12 -12 -12 -11 -12 -12 -12 -13 -13 -13 -13 -14 -14 -13 -13 -13
-25 -23 -24 -24 -24 -25 -24 -24 -23 -21 -20 -15 -18 -19 -16 -18 -18 -17 -15 -15 -15 -14 -14 -13 -13 -12 -12 -12 -12 -12 -12 -12 -12 -12 -12 -13 -13 -13 -13 -14 -14 -13 -14 -13
-24 -23 -23 -23 -24 -24 -24 -24 -23 -22 -21 -20 -19 -18 -17 -18 -18 -16 -16 -16 -16 -15 -14 -14 -14 -13 -13 -13 -12 -12 -12 -12 -12 -12 -12 -13 -13 -14 -14 -14 -14 -13 -14 -13
-25 -23 -24 -24 -23 -23 -24 -24 -23 -23 -21 -20 -19 -18 -18 -18 -19 -18 -17 -17 -16 -16 -15 -14 -14 -13 -13 -13 -13 -13 -12 -12 -12 -13 -13 -13 -14 -14 -14 -14 -14 -14 -13 -13
-25 -24 -23 -23 -22 -22 -24 -24 -23 -22 -22 -21 -20 -19 -18 -18 -19 -19 -19 -17 -16 -16 -15 -15 -14 -14 -14 -13 -13 -13 -13 -13 -13 -13 -13 -13 -14 -14 -14 -14 -14 -14 -13 -13
-25 -23 -23 -22 -22 -23 -23 -23 -23 -22 -22 -21 -21 -19 -19 -18 -19 -18 -18 -17 -17 -16 -16 -15 -15 -15 -14 -14 -14 -13 -13 -13 -13 -13 -13 -14 -14 -14 -14 -14 -14 -14 -13 -13
-25 -24 -23 -22 -22 -22 -23 -23 -23 -22 -22 -21 -21 -20 -19 -18 -18 -18 -16 -17 -18 -17 -16 -16 -15 -15 -15 -14 -14 -13 -13 -13 -13 -13 -14 -14 -14 -14 -14 -14 -14 -14 -13 -13
-25 -25 -23 -22 -23 -22 -22 -22 -22 -22 -21 -21 -21 -20 -19 -19 -19 -17 -19 -18 -18 -17 -17 -16 -15 -15 -15 -15 -14 -14 -14 -14 -13 -14 -14 -14 -14 -14 -14 -14 -14 -14 -14 -13
-25 -24 -24 -23 -22 -23 -21 -21 -22 -22 -21 -21 -21 -20 -19 -20 -19 -19 -19 -18 -18 -18 -17 -16 -16 -15 -15 -15 -14 -14 -14 -14 -14 -14 -14 -14 -14 -14 -14 -14 -14 -14 -14 -13
-26 -25 -24 -23 -23 -22 -22 -22 -22 -21 -21 -21 -21 -20 -20 -19 -17 -19 -19 -18 -18 -18 -17 -17 -16 -16 -15 -14 -14 -14 -14 -14 -14 -14 -14 -14 -14 -14 -14 -14 -14 -14 -14 -14
-25 -25 -25 -24 -23 -22 -22 -22 -22 -21 -21 -22 -21 -21 -20 -20 -19 -17 -20 -18 -18 -19 -18 -18 -17 -16 -15 -14 -15 -14 -14 -14 -14 -14 -14 -14 -14 -15 -14 -15 -15 -15 -14 -14
-25 -25 -25 -23 -23 -22 -22 -22 -22 -22 -22 -21 -22 -21 -20 -19 -19 -20 -20 -19 -19 -19 -19 -18 -17 -17 -16 -15 -15 -15 -15 -14 -14 -14 -14 -14 -14 -14 -14 -15 -15 -15 -14 -14
-25 -24 -24 -24 -23 -23 -23 -22 -22 -22 -21 -21 -20 -20 -20 -20 -20 -20 -20 -20 -19 -19 -19 -18 -18 -17 -17 -16 -16 -15 -15 -14 -15 -14 -14 -14 -14 -14 -14 -14 -15 -15 -15 -14
-25 -24 -24 -24 -24 -23 -23 -22 -22 -21 -21 -20 -21 -21 -20 -20 -20 -20 -20 -20 -20 -19 -19 -19 -18 -18 -18 -17 -17 -16 -15 -15 -14 -14 -14 -14 -14 -14 -14 -14 -14 -14 -14 -14
-25 -25 -24 -24 -24 -23 -23 -22 -22 -22 -21 -20 -20 -20 -20 -20 -20 -20 -20 -20 -20 -19 -19 -19 -18 -18 -18 -18 -17 -17 -16 -16 -15 -15 -14 -14 -14 -14 -15 -14 -15 -14 -15 -14
-26 -25 -25 -24 -24 -24 -23 -23 -22 -21 -21 -21 -21 -20 -20 -20 -20 -20 -20 -20 -20 -20 -19 -19 -19 -18 -18 -18 -17 -17 -17 -16 -16 -16 -15 -14 -14 -15 -14 -15 -15 -15 -14 -14
-27 -26 -25 -25 -24 -23 -23 -23 -22 -22 -22 -21 -21 -21 -21 -20 -20 -20 -20 -20 -19 -19 -20 -19 -19 -19 -19 -19 -18 -17 -16 -16 -16 -15 -15 -15 -15 -14 -14 -15 -15 -15 -14 -14
-27 -26 -26 -25 -24 -23 -23 -22 -22 -22 -21 -22 -21 -21 -21 -21 -20 -20 -20 -21 -21 -20 -20 -20 -20 -19 -19 -19 -18 -18 -18 -17 -17 -16 -15 -15 -16 -15 -15 -15 -15 -15 -15 -14
-27 -27 -26 -25 -24 -24 -23 -23 -22 -23 -22 -22 -22 -22 -22 -22 -22 -21 -21 -21 -21 -21 -20 -20 -20 -20 -20 -19 -19 -19 -18 -18 -18 -17 -16 -16 -15 -15 -15 -15 -15 -15 -15 -15
-27 -26 -26 -26 -25 -25 -23 -22 -22 -23 -22 -22 -22 -23 -22 -22 -22 -22 -22 -22 -22 -21 -21 -20 -20 -20 -20 -20 -20 -19 -19 -19 -18 -19 -19 -19 -18 -17 -16 -17 -16 -16 -16 -16
Height
5661 5661 5665 5660 5656 5659 5655 5658 5659 5666 5671 5669 5673 5675 5682 5689 5695 5698 5705 5708 5710 5714 5716 5720 5722 5725 5729 5732 5736 5738 5739 5741 5743 5744 5744 5742 5741 5741 5741 5740 5740 5740 5739 5738
5649 5652 5653 5647 5648 5648 5645 5646 5650 5655 5657 5654 5659 5661 5670 5677 5683 5687 5693 5698 5701 5704 5708 5710 5713 5716 5720 5724 5727 5729 5732 5732 5735 5737 5737 5736 5734 5736 5735 5734 5734 5734 5733 5733
5634 5647 5626 5629 5633 5635 5636 5636 5642 5641 5644 5643 5646 5650 5658 5667 5672 5677 5683 5687 5690 5695 5698 5700 5704 5707 5711 5714 5718 5721 5723 5725 5727 5729 5729 5729 5729 5730 5729 5729 5728 5728 5727 5727
5621 5619 5606 5610 5615 5625 5617 5630 5628 5628 5630 5632 5642 5638 5649 5658 5662 5665 5669 5675 5681 5684 5687 5691 5695 5698 5700 5703 5707 5712 5715 5716 5719 5720 5721 5722 5722 5723 5723 5723 5722 5721 5721 5721
5602 5589 5586 5585 5602 5599 5610 5615 5613 5616 5616 5623 5629 5634 5642 5647 5651 5655 5658 5665 5668 5673 5678 5681 5685 5689 5691 5693 5698 5702 5705 5708 5711 5712 5713 5714 5716 5716 5716 5716 5715 5715 5715 5714
5566 5564 5562 5567 5570 5575 5594 5591 5599 5602 5607 5605 5621 5628 5632 5640 5643 5644 5647 5652 5657 5662 5667 5671 5675 5679 5682 5684 5689 5691 5695 5699 5703 5704 5705 5707 5709 5709 5710 5711 5709 5708 5707 5707
5556 5549 5546 5547 5548 5557 5568 5576 5584 5591 5594 5599 5618 5614 5622 5630 5636 5639 5635 5642 5648 5652 5656 5661 5665 5669 5672 5676 5678 5682 5686 5690 5693 5696 5697 5699 5701 5701 5702 5704 5703 5701 5700 5700
5543 5541 5538 5536 5530 5542 5551 5562 5572 5580 5587 5598 5604 5605 5615 5621 5625 5625 5630 5634 5639 5642 5646 5650 5654 5658 5662 5666 5670 5673 5678 5681 5684 5686 5688 5690 5693 5694 5696 5697 5697 5695 5693 5692
5540 5537 5534 5530 5531 5534 5545 5548 5565 5577 5586 5591 5597 5600 5606 5612 5613 5615 5621 5627 5630 5634 5637 5641 5645 5648 5652 5657 5661 5664 5668 5672 5675 5677 5680 5683 5685 5687 5689 5690 5691 5689 5687 5686
5541 5531 5529 5527 5526 5533 5535 5547 5557 5565 5574 5581 5589 5596 5602 5604 5606 5607 5612 5617 5622 5627 5630 5632 5635 5638 5642 5646 5652 5655 5659 5663 5666 5669 5672 5674 5677 5678 5682 5683 5685 5682 5682 5681
5538 5532 5527 5525 5527 5532 5536 5539 5551 5561 5568 5576 5585 5590 5600 5604 5600 5604 5604 5607 5613 5618 5622 5625 5627 5631 5633 5637 5642 5647 5650 5653 5656 5660 5663 5665 5668 5671 5674 5677 5677 5676 5676 5676
5536 5531 5526 5526 5525 5531 5530 5539 5547 5552 5561 5569 5578 5587 5590 5596 5593 5598 5597 5600 5605 5609 5612 5616 5620 5623 5626 5629 5633 5638 5642 5644 5647 5651 5654 5657 5660 5664 5667 5669 5670 5671 5671 5671
5536 5531 5526 5526 5526 5525 5529 5536 5543 5550 5559 5564 5571 5579 5581 5586 5588 5594 5595 5592 5597 5602 5605 5609 5612 5615 5619 5622 5624 5629 5632 5635 5637 5642 5645 5648 5653 5656 5659 5663 5664 5665 5666 5665
5534 5532 5529 5527 5525 5525 5527 5530 5535 5543 5547 5559 5566 5576 5574 5574 5582 5586 5565 5582 5590 5594 5599 5602 5605 5608 5612 5614 5617 5621 5624 5626 5629 5634 5638 5642 5646 5649 5652 5655 5658 5660 5660 5660
5533 5531 5529 5526 5525 5525 5524 5527 5530 5535 5542 5550 5562 5571 5572 5572 5576 5576 5577 5581 5584 5588 5592 5595 5598 5601 5605 5608 5610 5613 5616 5618 5623 5627 5630 5634 5638 5640 5644 5647 5650 5653 5655 5655
5532 5530 5526 5524 5524 5525 5528 5528 5530 5532 5538 5543 5551 5556 5561 5566 5571 5571 5574 5578 5577 5580 5584 5587 5590 5593 5597 5601 5603 5605 5608 5612 5615 5619 5621 5624 5629 5633 5636 5639 5643 5647 5649 5651
5532 5529 5526 5524 5524 5526 5529 5528 5529 5532 5535 5540 5544 5552 5554 5562 5563 5560 5563 5568 5570 5571 5577 5579 5582 5585 5589 5593 5596 5599 5602 5605 5608 5610 5612 5616 5620 5623 5627 5631 5636 5639 5641 5645
5530 5529 5526 5523 5524 5527 5522 5526 5528 5531 5534 5538 5541 5549 5548 5551 5548 5548 5557 5562 5564 5566 5571 5573 5575 5578 5581 5584 5588 5591 5593 5596 5599 5601 5603 5608 5610 5613 5617 5622 5628 5631 5635 5637
5528 5527 5527 5524 5522 5524 5525 5526 5530 5532 5536 5537 5539 5540 5541 5547 5547 5550 5555 5557 5558 5561 5564 5567 5570 5572 5574 5577 5580 5583 5586 5588 5591 5593 5595 5597 5601 5605 5609 5613 5618 5623 5626 5629
5524 5526 5526 5525 5523 5522 5522 5524 5527 5531 5533 5535 5536 5538 5540 5541 5541 5545 5549 5551 5555 5558 5559 5561 5564 5566 5569 5571 5574 5576 5579 5580 5582 5584 5585 5585 5588 5596 5601 5606 5609 5613 5617 5620
5521 5523 5524 5523 5523 5523 5521 5524 5526 5530 5531 5528 5530 5534 5537 5536 5540 5540 5544 5547 5550 5553 5554 5556 5558 5560 5563 5566 5568 5569 5572 5573 5575 5571 5575 5576 5582 5588 5594 5598 5602 5606 5608 5611
5518 5519 5521 5521 5521 5523 5522 5522 5525 5527 5526 5528 5526 5529 5530 5534 5536 5537 5540 5542 5545 5547 5549 5551 5553 5555 5557 5558 5561 5563 5564 5566 5567 5570 5573 5572 5575 5579 5584 5590 5594 5598 5601 5603
5517 5515 5516 5518 5519 5519 5519 5520 5522 5522 5524 5526 5528 5527 5528 5530 5531 5534 5536 5537 5540 5543 5545 5547 5549 5550 5552 5553 5553 5554 5556 5557 5559 5562 5563 5564 5566 5570 5574 5580 5585 5588 5592 5595
5510 5511 5512 5514 5514 5516 5518 5519 5519 5520 5521 5522 5524 5526 5527 5528 5529 5531 5533 5531 5534 5538 5540 5543 5545 5546 5547 5547 5548 5548 5549 5549 5550 5553 5555 5556 5560 5561 5563 5570 5574 5580 5583 5585
5509 5510 5509 5508 5509 5511 5513 5514 5516 5516 5519 5520 5523 5525 5526 5527 5528 5530 5530 5531 5532 5536 5538 5540 5541 5541 5542 5542 5542 5543 5544 5545 5545 5546 5547 5549 5549 5553 5554 5558 5561 5565 5570 5574
5505 5506 5504 5501 5503 5504 5506 5509 5510 5513 5515 5516 5519 5523 5526 5527 5529 5530 5531 5532 5533 5535 5536 5536 5537 5538 5538 5538 5538 5539 5540 5541 5542 5543 5543 5545 5546 5547 5549 5549 5551 5551 5555 5559
Wind_Speed
46 46 44 44 46 42 49 50 49 51 37 41 55 60 57 52 49 52 47 49 50 48 49 48 46 47 44 42 36 35 34 34 34 34 31 30 32 28 25 24 26 28 26 27
53 51 47 47 47 47 51 50 52 46 47 48 52 60 57 54 53 53 50 51 48 50 50 47 48 48 44 42 38 36 35 35 33 33 32 32 35 31 28 25 25 28 28 29
58 52 54 54 51 50 51 53 45 52 47 39 53 60 57 51 53 52 50 51 52 50 50 49 48 46 43 43 40 38 35 34 32 33 33 35 36 33 30 25 25 28 29 32
60 59 63 57 55 50 56 49 51 53 54 53 45 53 42 48 49 53 55 54 51 51 51 48 46 44 45 42 41 39 37 36 33 35 34 38 36 36 32 27 27 29 29 31
62 61 62 63 58 55 54 51 50 48 45 56 52 50 40 38 43 50 54 51 51 53 51 49 46 46 44 43 41 39 39 36 33 36 36 38 37 40 35 32 29 29 30 31
59 57 56 62 63 58 55 56 51 52 44 43 48 49 45 27 32 40 50 43 46 47 47 47 46 44 44 45 41 42 39 37 34 36 37 38 40 43 39 34 31 30 31 32
37 32 31 33 52 57 58 58 47 38 40 51 41 41 50 30 24 26 37 42 38 42 44 45 43 43 43 43 41 38 38 36 36 36 39 38 41 43 41 36 33 30 31 32
33 12 16 17 35 41 46 42 43 44 40 53 39 33 37 30 35 43 42 34 33 37 39 42 45 45 43 43 40 37 35 35 38 39 40 40 41 43 41 39 34 31 31 31
25 12 14 20 21 28 34 45 39 39 32 29 23 35 37 30 34 47 41 36 32 31 35 42 41 44 44 43 42 40 38 35 36 37 38 41 42 44 41 40 35 31 29 30
19 14 13 13 23 22 29 35 37 44 40 30 30 27 28 25 31 35 33 32 33 34 36 37 41 43 45 44 41 41 39 38 37 36 38 43 44 45 42 40 32 30 28 27
15 16 15 15 5 10 16 33 37 32 39 35 29 27 24 22 29 30 28 36 32 32 37 40 40 40 42 43 40 39 38 37 36 35 39 45 47 46 42 37 30 28 28 24
11 12 10 2 1 9 16 17 31 36 33 37 31 24 20 29 37 30 34 31 26 27 34 38 39 40 38 38 37 36 36 36 34 35 40 47 48 43 41 35 28 26 26 22
9 5 14 8 11 9 15 20 26 31 29 35 32 27 29 28 30 31 32 32 25 28 30 33 35 36 33 34 34 33 34 34 33 37 42 47 45 43 39 33 26 25 25 19
8 4 7 12 13 6 14 17 30 27 31 30 31 28 24 32 27 45 22 25 25 29 29 33 33 32 30 30 32 31 32 32 33 38 40 44 43 43 39 30 26 25 24 18
3 3 13 18 11 10 7 1 19 38 35 36 29 28 28 31 33 43 42 29 30 30 31 32 32 33 31 27 29 30 31 32 35 36 39 40 44 45 42 30 29 26 24 18
12 6 4 15 12 16 11 10 2 14 38 37 37 37 22 27 29 29 36 32 32 31 32 32 32 33 32 29 28 30 30 34 36 37 37 40 43 44 43 32 29 27 25 20
12 8 5 4 9 13 12 11 7 4 7 33 38 35 33 24 31 34 34 34 32 23 24 28 31 32 33 32 28 28 32 34 36 35 36 38 40 45 44 34 31 28 25 23
6 4 7 7 12 10 8 11 13 7 4 11 25 27 39 48 42 13 25 32 30 25 25 25 27 30 35 33 29 28 30 31 32 35 38 38 37 40 44 35 31 29 26 24
2 4 2 7 6 8 6 14 13 12 10 11 12 19 20 28 36 30 26 25 26 24 24 25 27 29 32 34 30 28 27 30 38 34 41 41 42 42 43 38 34 32 29 30
13 7 7 4 3 1 2 16 12 16 11 14 20 19 18 25 31 29 25 24 23 24 25 26 29 27 29 26 29 29 30 32 36 43 55 52 44 40 41 36 31 25 31 40
14 8 6 5 3 2 5 15 15 15 13 20 14 21 22 18 21 27 24 25 22 22 23 23 24 24 27 28 26 30 33 36 39 39 36 38 39 41 41 37 32 29 26 20
16 12 11 12 9 9 5 15 24 20 11 8 7 12 21 23 22 22 22 21 23 24 25 25 24 24 23 24 26 29 30 36 39 37 38 55 59 58 42 41 36 32 27 28
15 16 14 14 14 10 8 6 24 24 18 1 5 4 13 19 24 28 29 32 37 27 19 17 18 20 21 22 22 24 28 31 27 35 37 41 53 52 49 44 37 32 33 31
18 18 17 18 19 17 12 12 15 17 20 10 9 12 11 12 14 21 24 29 21 21 16 15 18 20 22 20 21 21 22 25 25 26 27 33 37 48 50 47 41 40 39 39
16 20 16 19 21 20 21 24 23 23 19 12 9 5 5 4 7 6 7 9 11 14 16 18 18 20 18 17 19 18 17 16 16 24 23 24 28 33 35 53 57 56 53 48
11 9 5 20 17 24 27 25 28 27 19 12 10 8 9 5 7 9 9 9 11 11 12 12 13 15 19 19 17 18 19 17 17 14 17 16 16 22 31 27 29 39 41 41
Wind_Direction
284 280 278 275 271 272 263 257 260 250 250 254 247 248 243 241 240 245 242 243 245 249 253 256 259 260 262 265 265 264 266 267 268 268 263 267 272 273 276 290 294 294 289 285
282 280 282 270 267 264 266 266 257 255 257 254 245 244 245 243 241 241 242 242 244 246 250 253 256 259 259 262 262 264 265 266 265 267 264 264 271 274 271 282 291 290 289 283
281 281 272 269 261 260 261 262 265 258 255 255 255 244 242 244 246 244 243 243 243 246 248 251 253 256 258 260 261 260 262 264 265 266 265 265 272 275 271 283 291 286 286 282
286 277 275 268 262 259 252 257 255 254 254 255 256 248 252 246 249 246 243 241 244 246 248 250 252 253 256 257 259 258 259 264 264 266 267 268 272 277 274 280 287 286 285 281
287 277 270 263 260 244 248 246 245 250 254 252 248 250 246 244 244 246 245 246 245 245 247 249 250 250 253 253 255 254 256 260 260 264 267 268 273 276 274 280 282 283 287 280
286 277 268 257 251 235 236 233 237 242 246 249 247 246 241 244 252 250 247 241 247 245 247 247 247 248 249 251 249 249 251 253 255 259 262 263 267 273 274 277 282 283 290 283
284 281 274 266 248 236 228 229 230 236 231 247 250 247 240 239 228 230 247 243 244 245 245 245 243 243 246 248 247 245 244 247 252 255 257 258 262 269 273 276 283 285 291 284
308 288 250 247 222 237 232 223 223 228 232 243 243 231 244 242 238 246 248 252 249 244 242 242 242 242 242 243 241 239 240 247 252 254 255 257 260 264 268 273 282 285 290 284
311 289 254 252 245 221 236 226 218 219 231 236 236 246 240 236 246 248 249 248 246 242 240 241 240 241 243 242 241 239 243 246 249 253 254 255 257 261 264 272 278 281 285 276
324 299 281 269 216 230 233 223 211 218 222 223 229 229 240 247 238 244 243 242 242 239 239 239 238 240 242 244 243 242 243 244 247 249 250 251 253 256 262 272 271 277 278 276
323 312 288 276 207 204 242 206 211 220 223 219 226 230 219 235 239 238 234 241 240 238 234 236 239 240 243 245 245 243 241 242 244 246 246 249 250 255 262 268 264 272 273 274
327 303 302 64 339 230 186 228 208 218 212 219 222 222 229 220 237 248 247 236 236 235 237 237 241 243 244 247 247 245 244 243 241 240 242 246 248 255 258 262 259 267 270 275
336 343 309 227 224 199 205 201 209 217 218 219 221 216 230 206 236 228 230 234 228 234 239 239 240 243 245 243 246 247 246 241 238 240 241 244 248 251 255 257 257 265 266 274
337 337 261 255 283 250 237 210 197 206 212 211 215 217 230 225 229 225 248 243 238 240 241 243 244 243 245 248 247 245 244 242 240 241 243 245 249 251 252 248 253 260 260 264
313 316 247 260 270 255 54 273 195 199 203 201 200 215 232 249 257 259 256 247 247 245 245 247 247 247 244 245 249 245 243 245 243 245 247 248 248 250 250 241 248 253 254 255
328 360 218 251 252 250 254 267 68 188 204 197 198 194 204 213 203 264 250 249 259 247 243 247 251 254 250 249 252 252 247 244 247 245 243 244 248 248 248 237 244 250 250 245
327 334 23 154 240 240 251 223 216 203 196 204 196 197 211 222 237 224 215 228 234 236 244 248 251 254 254 253 252 248 247 248 247 249 243 244 251 246 247 234 240 245 249 248
299 281 5 86 128 198 222 233 235 189 189 204 204 208 210 213 217 246 221 219 240 251 246 250 254 256 253 255 258 249 245 250 249 250 247 245 248 248 239 232 237 241 244 248
190 276 350 19 140 116 223 225 210 198 192 200 201 214 227 215 225 229 226 231 237 240 245 248 250 255 256 255 257 253 247 242 246 247 247 252 242 242 232 234 232 242 245 244
192 235 266 271 52 157 166 221 193 180 215 215 225 227 227 222 224 228 227 226 230 235 242 248 251 253 253 258 255 247 243 239 239 229 239 242 223 224 233 241 239 250 249 247
195 183 239 227 260 300 221 202 199 178 240 202 198 208 220 221 220 216 224 230 232 238 246 251 258 256 254 249 251 251 248 245 240 240 205 208 220 229 231 236 242 248 256 244
193 212 229 237 236 264 250 208 188 194 189 216 256 224 206 219 218 226 218 224 221 235 243 246 243 238 241 247 251 249 253 254 252 256 248 236 238 237 234 236 238 240 255 244
206 213 216 218 223 240 234 259 196 201 194 106 312 185 209 221 223 217 233 227 224 226 226 230 235 236 245 249 248 247 248 258 253 250 256 230 218 225 235 231 236 240 247 248
224 214 223 224 229 235 231 237 238 227 178 198 204 234 190 173 197 192 215 192 187 205 216 232 241 242 244 245 244 246 239 245 243 239 247 242 247 208 228 234 241 235 236 244
221 225 252 250 229 226 230 230 228 227 204 175 169 204 214 180 168 184 189 195 192 207 220 233 244 246 238 247 245 242 243 240 248 230 229 241 241 250 248 220 223 237 241 250
229 218 284 238 220 223 225 228 224 220 220 188 176 214 234 224 213 210 201 211 215 221 227 230 242 249 245 245 257 249 248 243 241 249 235 233 237 236 239 253 241 225 223 230